Tracking 29892 objects as of 21-Nov-2024
HD Live streaming from Space Station
objects crossing your sky now

CZ-6A DEB

Track CZ-6A DEB now!
10-day predictions


NORAD ID: 54471
Int'l Code: 2022-151GX
Perigee: 652.6 km
Apogee: 792.2 km
Inclination: 98.7 °
Period: 99.1 minutes
Semi major axis: 7093 km
RCS: Unknown
Launch date: November 11, 2022
Source: People's Republic of China (PRC)
Launch site: Taiyaun Space Center, China (TSC)

Note: This is SATELLITE DEBRIS
Your satellite tracking list
Your tracking list is empty




NASA's NSSDC Master Catalog

Two Line Element Set (TLE):
1 54471U 22151GX  24325.01818338  .00018230  00000-0  41299-2 0  9991
2 54471  98.6602 352.3904 0098441 260.7849  98.2200 14.53187761106250
Source of the keplerian elements: AFSPC